Preview of NWS' New Version of Forecast
This preview is not operational and should not be used for support decisions.

Regional Weather Roundup (RWR)

Issued by National Weather Service (NWS)

                            
000
ASUS46 KSEW 170910
RWRWA 

WASHINGTON REGIONAL WEATHER ROUNDUP
NATIONAL WEATHER SERVICE SEATTLE WA
200 AM PDT WED JUL 17 2019

NOTE:"FAIR" INDICATES FEW OR NO CLOUDS BELOW 12,000 FEET WITH NO 
SIGNIFICANT WEATHER AND/OR OBSTRUCTIONS TO VISIBILITY.

WAZ507-509-555>559-171000-
SEATTLE, TACOMA, EVERETT, AND VICINITY
  
CITY           SKY/WX    TMP DP  RH WIND       PRES   REMARKS
EVERETT        CLOUDY    63  53  70 VRB3      29.93F                  
BOEING FIELD   CLOUDY    64  55  72 S8        29.94S                  
RENTON         CLOUDY    65  57  75 S8        29.93F                  
SEATAC AIRPORT CLOUDY    63  55  75 S12       29.94F                  
JBLM-MCCHORD   CLOUDY    63  61  94 S8        29.96S                  
PUYALLUP       CLOUDY    63  57  82 CALM      29.96F                  
BREMERTON      CLOUDY    60  55  83 S10       29.93F                  
JBLM-FT LEWIS  NOT AVBL                                               
TACOMA NARROWS CLOUDY    60  55  83 S8        29.96S                  
$$
 
WAZ001-503-506-510-514-515-171000-
NORTH INTERIOR
  
CITY           SKY/WX    TMP DP  RH WIND       PRES   REMARKS
BELLINGHAM     CLOUDY    63  55  75 S7        29.87F                  
FRIDAY HARBOR  CLOUDY    54  52  93 CALM      29.90F                  
EASTSOUND      CLOUDY    59  55  88 S8        29.87F                  
PORT ANGELES   CLOUDY    57  55  93 W3        29.91F                  
EDIZ HOOK      CLOUDY    58  55  89 W3        29.90S                  
PORT TOWNSEND  CLOUDY    63  55  77 E3        29.90F                  
NAS WHIDBEY    CLOUDY    64  54  69 S5        29.94F                  
ARLINGTON      CLOUDY    62  56  80 SE3       29.92F                  
BURLINGTON     CLOUDY    61  55  82 S8        29.90F                  
$$
 
WAZ020-022-039-040-504-511-512-171000-
SOUTHWEST INTERIOR
  
CITY           SKY/WX    TMP DP  RH WIND       PRES   REMARKS
SHELTON        CLOUDY    61  56  83 SW6       29.92F                  
OLYMPIA        CLOUDY    60  56  86 S7        29.96F                  
CHEHALIS       FAIR      61  59  94 SW3       29.97F                  
KELSO          CLOUDY    60  57  89 CALM      30.00S                  
VANCOUVER      CLOUDY    65  53  65 CALM      29.99S                  
SCAPPOOSE, OR  MOCLDY    58  54  86 NW3       29.99S                  
PORTLAND, OR   CLOUDY    66  53  63 CALM      29.99F                  
$$
 
WAZ021-516-517-171000-
WASHINGTON COAST
  
CITY           SKY/WX    TMP DP  RH WIND       PRES   REMARKS
FORKS          CLOUDY    60  59  96 S5        29.91S                  
HOQUIAM        LGT RAIN  63  59  87 SW8       29.95F                  
ASTORIA, OR    CLOUDY    63  57  81 SW7       29.97F                  
$$
 
WAZ019-023-024-040-567>569-171000-
CASCADE MOUNTAINS AND COLUMBIA GORGE
  
CITY           SKY/WX    TMP DP  RH WIND       PRES   REMARKS
STAMPEDE PASS  FOG       52  50  93 VRB3      29.99S VSB 1/4          
TROUTDALE, OR  CLOUDY    66  54  65 CALM      29.99R                  
HOOD RIVER, OR MOSUNNY   63  52  67 NW10G16   29.94F                  
THE DALLES, OR CLEAR     67  54  63 NW9       29.90S                  
$$

WAZ026-027-041>044-520-521-171000-
EAST SLOPES
  
CITY           SKY/WX    TMP DP  RH WIND       PRES   REMARKS
OMAK           MOCLDY    65  49  56 W3        29.81S                  
WENATCHEE      MOCLDY    67  47  48 NW6       29.84F                  
ELLENSBURG     PTCLDY    63  51  65 W7        29.89F                  
YAKIMA         PTCLDY    57  50  77 SW7       29.88S                  
SUNNYSIDE ARPT MOSUNNY   58  55  90 CALM      29.87S                  
YAKIMA TC      FAIR      60  46  59 E7        29.87S                  
$$

WAZ028-034-035-171000-
COLUMBIA BASIN
  
CITY           SKY/WX    TMP DP  RH WIND       PRES   REMARKS
EPHRATA        MOCLDY    66  44  45 NE6       29.82S                  
MOSES LAKE     PTCLDY    68  53  58 SW7       29.84R                  
PASCO          MOCLDY    72  52  49 SW6       29.85S                  
RICHLAND ARPT  PTSUNNY   71  52  50 S6        29.85                   
HERMISTON, OR  MOCLDY    70  51  51 SW14      29.86S                  
$$

WAZ036>038-171000-
NORTHEAST WASHINGTON
  
CITY           SKY/WX    TMP DP  RH WIND       PRES   REMARKS
SPOKANE GEIGER MOCLDY    61  51  70 SE5       29.88F                  
SPOKANE FELTS  NOT AVBL                                               
FAIRCHILD AFB  PTCLDY    56  54  92 E3        29.88F                  
COEURDALENE,ID CLEAR     58  52  80 NE6       29.90F                  
DEER PARK      PTCLDY    52  49  89 CALM      29.89S                  
$$

WAZ029>033-171000-
SOUTHEAST WASHINGTON
  
CITY           SKY/WX    TMP DP  RH WIND       PRES   REMARKS
PULLMAN        CLEAR     53  44  71 CALM      29.93S                  
LEWISTON, ID   CLEAR     63  45  51 SE5       29.87F                  
WALLA WALLA    MOCLDY    70  46  42 S12       29.89S                  
PENDLETON, OR  CLOUDY    69  48  47 SW8G18    29.91S                  
$$